Weather History for Walden-Jackson Cnty AP, Walde, CO

Change the Weather History Date:

Monday, May 19, 2014

  Actual Average (KSBS) Record (KSBS)
Temperature  
Mean Temperature 50 °F -  
Max Temperature 66 °F 67 °F 82 °F (1934)
Min Temperature 33 °F 31 °F 19 °F (1931)
Degree Days  
Heating Degree Days 16    
Moisture  
Dew Point 24 °F    
Average Humidity 40    
Maximum Humidity 75    
Minimum Humidity 15    
Precipitation  
Precipitation 0.00 in - - ()
Sea Level Pressure  
Sea Level Pressure 29.95 in    
Wind  
Wind Speed 10 mph (WSW)    
Max Wind Speed 23 mph    
Max Gust Speed 38 mph    
Visibility 10 miles    
Events      
Averages and records for this station are not official NWS values.
T = Trace of Precipitation, MM = Missing Value Source: NWS Daily Summary

Daily Weather History Graph

Daily Weather History Graph

Search for Another Location

Airport:

Trip Planner

Search our weather history database for the weather conditions in past years. The results will help you decide how hot, cold, wet, or windy it might be!

Date:

Astronomy

May. 19, 2014 Rise Set
Actual Time 5:44 AM MDT 8:19 PM MDT
Civil Twilight 5:12 AM MDT 8:50 PM MDT
Nautical Twilight 4:33 AM MDT 9:30 PM MDT
Astronomical Twilight 3:49 AM MDT 10:14 PM MDT
Moon 12:08 AM MDT (5/19) 10:45 AM MDT (5/19)
Length of Visible Light 15h 38m
Length of Day
14h 35m
Waning Gibbous, 70% of the Moon is Illuminated
May 19
Waning Gibbous
May 21
Last Quarter
May 28
New
Jun 5
First Quarter
Jun 12
Full

Hourly Weather History & Observations

Time (MDT) Temp. Windchill Dew Point Humidity Pressure Visibility Wind Dir Wind Speed Gust Speed Precip Events Conditions
12:16 AM 41.0 °F 35.8 °F 26.6 °F 57% 29.90 in 10.0 mi ESE 8.1 mph - N/A   Clear
12:36 AM 41.0 °F 35.2 °F 28.4 °F 61% 29.88 in 10.0 mi ESE 9.2 mph - N/A   Clear
12:56 AM 41.0 °F 35.2 °F 26.6 °F 57% 29.88 in 10.0 mi SE 9.2 mph - N/A   Clear
1:16 AM 42.8 °F 38.0 °F 26.6 °F 53% 29.88 in 10.0 mi ESE 8.1 mph - N/A   Scattered Clouds
1:36 AM 42.8 °F - 26.6 °F 53% 29.88 in 10.0 mi Calm Calm - N/A   Scattered Clouds
1:56 AM 39.2 °F 37.0 °F 26.6 °F 61% 29.88 in 10.0 mi WSW 3.5 mph - N/A   Clear
2:15 AM 37.4 °F 33.8 °F 26.6 °F 65% 29.89 in 10.0 mi North 4.6 mph - N/A   Clear
2:36 AM 37.4 °F 31.4 °F 26.6 °F 65% 29.90 in 10.0 mi North 8.1 mph - N/A   Clear
2:56 AM 39.2 °F 32.5 °F 26.6 °F 61% 29.91 in 10.0 mi North 10.4 mph - N/A   Clear
3:16 AM 41.0 °F 34.7 °F 26.6 °F 57% 29.91 in 10.0 mi North 10.4 mph - N/A   Clear
3:36 AM 41.0 °F 34.7 °F 26.6 °F 57% 29.91 in 10.0 mi NNW 10.4 mph - N/A   Clear
3:56 AM 37.4 °F 31.4 °F 26.6 °F 65% 29.92 in 10.0 mi North 8.1 mph - N/A   Clear
4:16 AM 37.4 °F 32.8 °F 26.6 °F 65% 29.93 in 10.0 mi North 5.8 mph - N/A   Clear
4:36 AM 37.4 °F 32.8 °F 26.6 °F 65% 29.92 in 10.0 mi North 5.8 mph - N/A   Scattered Clouds
4:56 AM 37.4 °F 33.8 °F 24.8 °F 60% 29.93 in 10.0 mi WSW 4.6 mph - N/A   Mostly Cloudy
5:16 AM 37.4 °F 32.1 °F 26.6 °F 65% 29.93 in 10.0 mi SW 6.9 mph - N/A   Overcast
5:36 AM 41.0 °F 38.0 °F 23.0 °F 49% 29.93 in 10.0 mi West 4.6 mph - N/A   Scattered Clouds
5:56 AM 39.2 °F - 24.8 °F 56% 29.94 in 10.0 mi Calm Calm - N/A   Scattered Clouds
6:15 AM 33.8 °F 30.8 °F 26.6 °F 75% 29.94 in 10.0 mi ESE 3.5 mph - N/A   Scattered Clouds
6:36 AM 37.4 °F 33.8 °F 28.4 °F 70% 29.95 in 10.0 mi SSE 4.6 mph - N/A   Clear
7:56 AM 46.4 °F 45.2 °F 32.0 °F 57% 29.95 in 10.0 mi South 3.5 mph - N/A   Scattered Clouds
8:55 AM 53.6 °F - 28.4 °F 38% 29.95 in 10.0 mi South 5.8 mph - N/A   Clear
9:15 AM 55.4 °F - 21.2 °F 26% 29.94 in 10.0 mi SSW 10.4 mph 16.1 mph N/A   Clear
9:36 AM 55.4 °F - 23.0 °F 29% 29.95 in 10.0 mi SW 13.8 mph 18.4 mph N/A   Clear
9:56 AM 59.0 °F - 19.4 °F 22% 29.94 in 10.0 mi WSW 18.4 mph 26.5 mph N/A   Clear
10:16 AM 59.0 °F - 19.4 °F 22% 29.94 in 10.0 mi SW 23.0 mph 34.5 mph N/A   Clear
10:36 AM 59.0 °F - 19.4 °F 22% 29.94 in 10.0 mi WSW 23.0 mph 34.5 mph N/A   Clear
10:56 AM 60.8 °F - 21.2 °F 22% 29.95 in 10.0 mi SW 20.7 mph 32.2 mph N/A   Clear
11:16 AM 60.8 °F - 19.4 °F 20% 29.95 in 10.0 mi WSW 19.6 mph 32.2 mph N/A   Clear
11:35 AM 60.8 °F - 19.4 °F 20% 29.95 in 10.0 mi WSW 21.9 mph 27.6 mph N/A   Clear
12:16 PM 60.8 °F - 19.4 °F 20% 29.96 in 10.0 mi SSW 15.0 mph 25.3 mph N/A   Clear
12:36 PM 60.8 °F - 19.4 °F 20% 29.96 in 10.0 mi SW 19.6 mph 26.5 mph N/A   Clear
12:56 PM 62.6 °F - 19.4 °F 19% 29.96 in 10.0 mi SW 12.7 mph 28.8 mph N/A   Clear
1:16 PM 62.6 °F - 19.4 °F 19% 29.96 in 10.0 mi SW 13.8 mph 28.8 mph N/A   Scattered Clouds
1:36 PM 62.6 °F - 17.6 °F 18% 29.96 in 10.0 mi SSW 16.1 mph 32.2 mph N/A   Scattered Clouds
1:56 PM 64.4 °F - 21.2 °F 19% 29.96 in 10.0 mi WSW 19.6 mph 27.6 mph N/A   Clear
2:16 PM 64.4 °F - 17.6 °F 16% 29.95 in 10.0 mi WSW 19.6 mph 27.6 mph N/A   Clear
2:36 PM 64.4 °F - 19.4 °F 18% 29.95 in 10.0 mi WSW 21.9 mph 28.8 mph N/A   Clear
2:55 PM 62.6 °F - 15.8 °F 16% 29.95 in 10.0 mi SSW 17.3 mph 24.2 mph N/A   Scattered Clouds
3:16 PM 66.2 °F - 19.4 °F 17% 29.95 in 10.0 mi SW 21.9 mph 27.6 mph N/A   Scattered Clouds
3:36 PM 62.6 °F - 19.4 °F 19% 29.96 in 10.0 mi WSW 16.1 mph 38.0 mph N/A   Scattered Clouds
3:56 PM 64.4 °F - 19.4 °F 18% 29.96 in 10.0 mi WSW 16.1 mph 28.8 mph N/A   Scattered Clouds
4:16 PM 62.6 °F - 14.0 °F 15% 29.96 in 10.0 mi SW 16.1 mph 24.2 mph N/A   Scattered Clouds
4:56 PM 62.6 °F - 15.8 °F 16% 29.96 in 10.0 mi SSW 11.5 mph - N/A   Clear
5:16 PM 62.6 °F - 21.2 °F 20% 29.96 in 10.0 mi WSW 11.5 mph - N/A   Clear
5:36 PM 62.6 °F - 19.4 °F 19% 29.96 in 10.0 mi WSW 15.0 mph 20.7 mph N/A   Clear
5:56 PM 60.8 °F - 21.2 °F 22% 29.97 in 10.0 mi WSW 16.1 mph 19.6 mph N/A   Clear
6:16 PM 60.8 °F - 21.2 °F 22% 29.97 in 10.0 mi WSW 10.4 mph - N/A   Clear
6:35 PM 59.0 °F - 23.0 °F 25% 29.97 in 10.0 mi WSW 10.4 mph - N/A   Clear
6:56 PM 59.0 °F - 26.6 °F 29% 29.97 in 10.0 mi West 10.4 mph - N/A   Clear
7:16 PM 55.4 °F - 26.6 °F 33% 29.98 in 10.0 mi West 6.9 mph - N/A   Clear
7:36 PM 53.6 °F - 28.4 °F 38% 29.98 in 10.0 mi West 5.8 mph - N/A   Clear
7:56 PM 53.6 °F - 26.6 °F 35% 29.99 in 10.0 mi West 3.5 mph - N/A   Clear
8:15 PM 53.6 °F - 26.6 °F 35% 29.99 in 10.0 mi Calm Calm - N/A   Clear
8:35 PM 50.0 °F - 26.6 °F 40% 30.00 in 10.0 mi NNE 4.6 mph - N/A   Clear
8:56 PM 50.0 °F - 28.4 °F 43% 30.01 in 10.0 mi North 10.4 mph - N/A   Clear
9:15 PM 50.0 °F - 32.0 °F 50% 30.01 in 10.0 mi North 9.2 mph - N/A   Clear
9:36 PM 50.0 °F - 32.0 °F 50% 30.02 in 10.0 mi NW 9.2 mph - N/A   Clear
9:55 PM 48.2 °F - 32.0 °F 54% 30.02 in 10.0 mi NNW 13.8 mph - N/A   Clear
10:16 PM 46.4 °F 40.7 °F 32.0 °F 57% 30.03 in 10.0 mi NNW 12.7 mph - N/A   Clear
10:36 PM 46.4 °F 42.9 °F 32.0 °F 57% 30.04 in 10.0 mi NNW 6.9 mph - N/A   Clear
10:56 PM 42.8 °F 39.3 °F 32.0 °F 66% 30.04 in 10.0 mi NNW 5.8 mph - N/A   Clear
11:16 PM 41.0 °F 36.4 °F 32.0 °F 70% 30.03 in 10.0 mi NW 6.9 mph - N/A   Clear
11:35 PM 41.0 °F 34.7 °F 32.0 °F 70% 30.04 in 10.0 mi WNW 10.4 mph - N/A   Clear